Погода в Затоке

Украина / Одесская область     46°03′58″N   30°27′11″E
темп.,
°C
ветер,
м/с
пор.,
м/с
влажн.,
%
обл.,
%
осадки,
мм/ч
давл.,
гПа
погр.,
м
25 февраля, чт
чт2523:00+3ю4575100 0.0 1036339
02:00+3юз5585100 0.3 1035283
05:00+3юз4692100 0.6 1034269
08:00+4зюз5690100 0.9 1034195
11:00+5з349198 0.0 103447
14:00+6сз119185 0.0 103339
17:00+7ююз33866 0.0 103123
20:00+8зюз458542 0.0 103126
26 февраля, пт
пт2623:00+7зюз558598 0.0 103127
02:00+7з458749 0.0 103024
05:00+6зюз45880 0.0 102831
08:00+6зюз45870 0.0 102835
11:00+7юз66840 0.0 102755
14:00+8юз67830 0.0 102559
17:00+8ююз67790 0.0 102343
20:00+8юз78810 0.0 102253
27 февраля, сб
сб2723:00+8юз67830 0.0 102141
02:00+7з34860 0.0 102022
05:00+7ссз44840 0.0 101922
08:00+6ссз56890 0.0 101958
11:00+6с7108558 0.0 1019156
14:00+6ссз677979 0.0 101998
17:00+6ссз71072100 0.1 1019138
20:00+5сз687587 0.1 1020134
28 февраля, вс
вс2823:00+4сз7138555 0.0 1020487
02:00+4ссз10138327 0.0 1021701
05:00+3ссз10128230 0.0 1021694
08:00+3ссз9128417 0.0 1023692
11:00+4ссз797733 0.0 1024886
14:00+4ссз797764 0.1 1025619
17:00+4ссз7107495 0.1 1026626
20:00+4ссз7107294 0.1 1027767
1 марта, пн
пн123:00+4ссз687799 0.1 1028743
02:00+3ссз7980100 0.1 1029642
05:00+2с7888100 0.0 1029473
08:00+2с788478 0.0 1030567
11:00+3ссв67710 0.0 1032869
14:00+4ссв466836 0.0 1033884
17:00+4с477192 0.0 1033656
20:00+4с567293 0.1 1034761